Miscellaneous Local Product
Issued by NWS North Platte, NE

Home | Current Version | Previous Version | Text Only | Print | Product List | Glossary On
Versions: 1 2 3 4 5 6 7 8 9 10 11 12 13 14 15 16 17 18 19 20 21 22 23 24 25 26 27 28 29 30 31 32 33 34 35 36 37 38 39 40 41 42 43 44 45 46 47 48 49 50
768
AXUS43 KLBF 081610
MISLBF


WESTERN AND NORTH CENTRAL NEBRASKA HOURLY WEATHER ROUNDUP
NATIONAL WEATHER SERVICE NORTH PLATTE NE
1000 AM CST MON FEB 08 2016

NOTE: "FAIR" INDICATES FEW OR NO CLOUDS BELOW 12,000 FEET WITH NO
SIGNIFICANT WEATHER AND/OR OBSTRUCTIONS TO VISIBILITY.

NOTE: STATIONS NOT REPORTING VARIABLES SUCH AS SKY/WEATHER OR
PRESSURE ARE PROVIDED BY THE NEBRASKA DEPARTMENT OF
ROADS...RAWS...AND APRS NETWORKS...AND ARE NOT UNDER
NATIONAL WEATHER SERVICE QUALITY CONTROL.

...OBSERVATIONS IN AND NEAR THE EASTERN PANHANDLE OF NEBRASKA...

CITY           SKY/WX    TMP DP  RH WIND       PRES   REMARKS
PINE RIDGE     CLOUDY    26  15  63 NW8       30.38R WCI  18
CHADRON        MOSUNNY   30  13  49 NW17G29   30.40R WCI  18
ALLIANCE       CLOUDY    28  11  48 NW20      30.35R WCI  15
SIDNEY         CLOUDY    26  13  57 NW10      30.36R WCI  16
CRESCENT LAKE    N/A     33  19  56 NW16G23     N/A  WCI  22
BIG SPRINGS      N/A     29  17  60 W7          N/A  WCI  22
$$

...OBSERVATIONS IN NORTH CENTRAL NEBRASKA...

CITY           SKY/WX    TMP DP  RH WIND       PRES   REMARKS
THEDFORD       SUNNY     30  17  56 NW28G35   30.29R WCI  16
AINSWORTH      SUNNY     29  15  55 NW29G37   30.27R WCI  14
O`NEILL        SUNNY     28  17  63 NW30G43   30.21R WCI  13
ORD            SUNNY     29  16  58 NW29G39   30.21R WCI  14
BROKEN BOW     SUNNY     29  15  56 NW30G43   30.24R WCI  13
VALENTINE NWR    N/A     37  17  44 NW21G31     N/A  WCI  26
BUTTE            N/A     27  18  67 NW25G38     N/A  WCI  12
HALSEY           N/A     37  20  50 W9G20       N/A  WCI  30
CHAMBERS         N/A     29  14  53 NW9G26      N/A  WCI  21
EWING            N/A     28  18  66 N15G30      N/A  WCI  16
$$

...OBSERVATIONS IN SOUTHWEST NEBRASKA AND FAR NORTHEAST COLORADO...

CITY           SKY/WX    TMP DP  RH WIND       PRES   REMARKS
WRAY           FAIR      28  15  58 W10       30.39R WCI  18
HOLYOKE        FAIR      34  18  51 NW23G30   30.36R WCI  22
IMPERIAL       CLOUDY    29  11  47 NW20G29   30.36R WCI  16
OGALLALA       CLOUDY    29  12  49 NW23      30.35R WCI  15
NORTH PLATTE   SUNNY     29  14  53 NW21G28   30.32R WCI  16
MCCOOK         SUNNY     29  15  56 NW22G31   30.34R WCI  15
LEXINGTON      SUNNY     29  17  59 NW24G31   30.28R WCI  15
PAXTON           N/A     27  18  68 W9          N/A  WCI  18
STAPLETON        N/A     27  16  63 W3G15       N/A
GOTHENBURG       N/A     27  14  57 NW17        N/A  WCI  14
CALLAWAY         N/A     28  17  64 NW23        N/A  WCI  14
$$

...OBSERVATIONS IN CENTRAL LINCOLN COUNTY AREA...

CITY           SKY/WX    TMP DP  RH WIND       PRES   REMARKS
N.P. AIRPORT   SUNNY     29  14  53 NW21G28   30.32R WCI  16
N.P. DOWNTOWN    N/A     26  15  63 W8G16       N/A  WCI  18
N.P. SOUTHEAST   N/A     27  14  58 NW6G15      N/A  WCI  21
N.P. HILLCREST   N/A     29  16  57 NW24G31     N/A  WCI  15
$$

...SOME OBSERVATIONS FROM AROUND THE REGION...

CITY           SKY/WX    TMP DP  RH WIND       PRES   REMARKS
DENVER         CLOUDY    23  13  65 E3        30.38R
LARAMIE          N/A     31  19  61 N8        30.40R WCI  23
CHEYENNE       CLOUDY    34  19  54 N15G24    30.37R WCI  24
SCOTTSBLUFF    CLOUDY    31  16  54 NW14      30.39R WCI  21
RAPID CITY     CLOUDY    33  10  38 NW30G38   30.33S WCI  19
BISMARCK       CLOUDY    30  17  58 NW16G26   30.29S WCI  19
PIERRE         SUNNY     28  18  66 NW25G33   30.28R WCI  13
WINNER         FAIR      30  17  58 NW30G36   30.28R WCI  15
SIOUX FALLS    LGT SNOW  20  13  74 N25G36    30.11R BLWGSNOWWCI   2
OMAHA          FLURRIES  27  18  69 N33G40    30.08R WCI  10
GRAND ISLAND   SUNNY     28  16  60 NW28G35   30.21R WCI  13
KANSAS CITY    FLURRIES  30  18  60 N20G30    30.04R WCI  17
WICHITA        MOSUNNY   39  15  37 NW25G45   30.23R WCI  28
OKLAHOMA CITY  SUNNY     41  14  33 NW30G41   30.31R
LIBERAL        SUNNY     39  14  35 NW25G32   30.41R WCI  28
HAYS           SUNNY     34  10  37 NW33G45   30.30R WCI  19
GOODLAND       SUNNY     28  14  55 NW21      30.37R WCI  15
$$




USA.gov is the U.S. government's official web portal to all federal, state and local government web resources and services.